Regional Weather Roundup
Issued by NWS

Home | Current Version | Previous Version | Graphics & Text | Print | Product List | Glossary On
Versions: 1 2 3 4 5 6 7 8 9 10 11 12 13 14 15 16 17 18 19 20 21 22 23 24 25 26 27 28 29 30 31 32 33 34 35 36 37 38 39 40 41 42 43 44 45 46 47 48 49 50
000
ASUS43 KDMX 011507
RWRIA

WEATHER ROUNDUP FOR IOWA
NATIONAL WEATHER SERVICE DES MOINES IA
1000 AM CDT SAT AUG 01 2015

NOTE: "FAIR" INDICATES FEW OR NO CLOUDS BELOW 12,000 FEET WITH NO
SIGNIFICANT WEATHER AND/OR OBSTRUCTIONS TO VISIBILITY.

* - THESE STATIONS ARE NOT NWS STATIONS...THUS NOT UNDER NWS
QUALITY CONTROL.  THEY ALSO DO NOT REPORT WEATHER SUCH
AS PRECIPITATION OR FOG.

IAZ001>003-012>014-020>022-031>034-043>046-011600-
   NORTHWEST IOWA

CITY           SKY/WX    TMP DP  RH WIND       PRES   REMARKS
CARROLL *      SUNNY     75  72  88 SW7       30.03S
CHEROKEE *     PTSUNNY   73  72  94 SW7       30.04S
DENISON *      SUNNY     70  68  94 SW8       30.04R
LE MARS *      SUNNY     75  68  78 CALM      30.04S
ORANGE CITY *  SUNNY     73  68  83 W3        30.04F
SHELDON *      SUNNY     73  70  88 SW6       30.03F
SIOUX CITY     PTSUNNY   75  66  73 S3        30.03S
SPENCER        MOSUNNY   77  68  73 SW8       30.04S
STORM LAKE *   SUNNY     75  72  88 W10       30.06R
$$

IAZ055>058-069>071-079>083-090>094-011600-
   SOUTHWEST IOWA

CITY           SKY/WX    TMP DP  RH WIND       PRES   REMARKS
ATLANTIC *     SUNNY     70  68  94 SW7       30.07S
AUDUBON *      SUNNY     72  68  88 S6        30.07R
CLARINDA *     SUNNY     73  70  88 CALM      30.08S
COUNCIL BLFS * SUNNY     70  68  94 SW9       30.06F
CRESTON *      SUNNY     73  68  83 SW3       30.08F
HARLAN  *      SUNNY     68  68 100 S7        30.10S
LAMONI         CLOUDY    76  69  79 S5        30.06S
RED OAK *      CLOUDY    72  68  88 CALM      30.08R
SHENANDOAH *   SUNNY     72  70  94 W5        30.08S
$$

IAZ047>049-059>061-072>074-084-011600-
   CENTRAL IOWA

CITY           SKY/WX    TMP DP  RH WIND       PRES   REMARKS
AMES           PTSUNNY   76  69  79 SW9       30.03S
ANKENY *       SUNNY     81  68  65 SW9       30.02F HX  83
CHARITON *     SUNNY     79  70  73 S6        30.05F HX  81
DES MOINES     CLOUDY    80  66  62 SW9       30.03F HX  82
GRINNELL*      MOSUNNY   75  66  73 SW7       30.04F
KNOXVILLE *    SUNNY     79  68  69 S6        30.03F HX  81
MARSHALLTOWN   MOSUNNY   77  68  73 W12       30.02S
PELLA *        MOSUNNY   81  70  69 SW5       30.05F HX  84
PERRY *          N/A     79  70  73 SW8       30.03F HX  81
$$

IAZ004>006-015-016-023>025-035-036-011600-
   NORTH CENTRAL IOWA

CITY           SKY/WX    TMP DP  RH WIND       PRES   REMARKS
ALGONA *       SUNNY     77  72  83 SW10      30.02F
CLARION *      SUNNY     77  72  83 W9        30.02F
ESTHERVILLE    SUNNY     77  68  73 SW8       30.02F
FORT DODGE *   MOSUNNY   81  70  69 SW7       30.04F HX  84
MASON CITY     SUNNY     80  69  69 W12       30.02F HX  83
FOREST CITY *  SUNNY     77  68  73 W6        30.02R
IOWA FALLS *     N/A     79  70  73 SW10      30.04S HX  81
$$

IAZ007>011-017>019-026>030-037>042-050>054-066-011600-
   NORTHEAST IOWA

CITY           SKY/WX    TMP DP  RH WIND       PRES   REMARKS
CEDAR RAPIDS   SUNNY     76  68  76 SW12      30.01F
CHARLES CITY * SUNNY     77  70  78 W12       30.01S
CLINTON *      SUNNY     75  64  69 W5        30.04S
DECORAH *      SUNNY     73  64  73 VRB6G13   30.00S
DUBUQUE        CLOUDY    75  62  64 SW9       30.02R
MONTICELLO *   SUNNY     77  64  65 VRB5      30.01S
OELWEIN *      SUNNY     77  66  69 W12G18    30.01F
WATERLOO       SUNNY     79  68  69 SW17      29.99F HX  81
$$

IAZ064-065-067-068-078-011600-
   EAST CENTRAL IOWA

CITY           SKY/WX    TMP DP  RH WIND       PRES   REMARKS
DAVENPORT      SUNNY     78  63  59 SW8       30.03S HX  80
IOWA CITY      MOSUNNY   77  65  66 SW7       30.03F
MT. PLEASANT * SUNNY     81  59  47 S7        30.04F HX  81
MUSCATINE *    SUNNY     79  63  57 S8        30.03S HX  80
QUAD CITIES    SUNNY     79  61  53 SW7       30.02S HX  80
$$

IAZ062-063-075>077-085>089-095>099-011600-
   SOUTHEAST IOWA

CITY           SKY/WX    TMP DP  RH WIND       PRES   REMARKS
BURLINGTON     SUNNY     78  66  66 SW7       30.04S HX  80
FAIRFIELD *    SUNNY     79  63  57 S8        30.04F HX  80
FORT MADISON * SUNNY     79  66  65 S5        30.06S HX  81
KEOKUK *       SUNNY     79  64  61 S8        30.05S HX  81
OSKALOOSA *      N/A     77  66  69 SW6       30.05S
CENTERVILLE *  SUNNY    N/A N/A N/A S6        30.06F
OTTUMWA        SUNNY     77  66  68 S8        30.03F
WASHINGTON *   SUNNY     77  66  69 SW9       30.05S
$$

ABBREVIATIONS USED IN REMARKS
   TC - TEMPERATURES IN CELSIUS
  WCI - WIND CHILL INDEX
   HX - HEAT INDEX
  VSB - VISIBILITY
$$




USA.gov is the U.S. government's official web portal to all federal, state and local government web resources and services.